QPF
0.00 0.00 0.00 0.00 0.00 0.00 0.00 0.00 0.00 0.00 0.00 0.00 0.00 0.00 0.00 0.00 0.00 0.00 0.00 0.00 0.00 0.00 0.00 0.01 0.01 0.01 0.01 0.00 0.00 0.00 0.00 0.01 0.01 0.01 0.01 0.01 0.01 0.01 0.01 0.01 0.01 0.01 0.01 0.01 0.01 0.01 0.02 0.02 0.02
0.00 0.00 0.00 0.00 0.00 0.00 0.00 0.00 0.00 0.00 0.00 0.00 0.00 0.00 0.00 0.00 0.00 0.00 0.00 0.00 0.00 0.00 0.00 0.01 0.01 0.01 0.01 0.00 0.00 0.00 0.00 0.00 0.01 0.01 0.00 0.01 0.01 0.01 0.01 0.01 0.01 0.01 0.01 0.02 0.01 0.01 0.01 0.01 0.01
0.00 0.00 0.00 0.00 0.00 0.00 0.00 0.00 0.00 0.00 0.00 0.00 0.00 0.00 0.00 0.00 0.00 0.00 0.00 0.00 0.00 0.00 0.00 0.01 0.01 0.01 0.01 0.01 0.00 0.00 0.00 0.01 0.01 0.00 0.00 0.00 0.00 0.00 0.00 0.00 0.00 0.01 0.01 0.01 0.01 0.01 0.01 0.00 0.01
0.00 0.01 0.01 0.01 0.00 0.00 0.00 0.00 0.00 0.00 0.00 0.00 0.00 0.00 0.00 0.00 0.00 0.00 0.00 0.00 0.00 0.00 0.01 0.02 0.02 0.02 0.01 0.01 0.01 0.01 0.01 0.01 0.00 0.00 0.00 0.00 0.00 0.00 0.00 0.00 0.00 0.01 0.00 0.00 0.00 0.00 0.01 0.00 0.01
0.01 0.01 0.00 0.00 0.00 0.00 0.00 0.00 0.00 0.00 0.00 0.00 0.00 0.00 0.00 0.00 0.00 0.00 0.00 0.00 0.00 0.01 0.02 0.03 0.03 0.03 0.03 0.02 0.01 0.01 0.01 0.01 0.01 0.01 0.01 0.01 0.01 0.01 0.01 0.01 0.00 0.00 0.00 0.00 0.00 0.00 0.00 0.00 0.00
0.01 0.01 0.00 0.00 0.00 0.00 0.00 0.00 0.00 0.00 0.00 0.00 0.00 0.00 0.00 0.00 0.00 0.00 0.00 0.00 0.00 0.01 0.01 0.02 0.03 0.03 0.02 0.02 0.02 0.02 0.02 0.01 0.01 0.01 0.01 0.01 0.01 0.01 0.00 0.00 0.00 0.00 0.00 0.00 0.00 0.00 0.00 0.00 0.00
0.01 0.01 0.00 0.00 0.00 0.00 0.00 0.00 0.00 0.00 0.00 0.00 0.00 0.00 0.00 0.01 0.01 0.00 0.00 0.00 0.00 0.01 0.01 0.01 0.02 0.02 0.02 0.02 0.02 0.02 0.02 0.02 0.02 0.02 0.02 0.01 0.01 0.01 0.01 0.00 0.00 0.00 0.00 0.00 0.00 0.01 0.00 0.00 0.00
0.01 0.01 0.00 0.00 0.00 0.00 0.00 0.00 0.00 0.00 0.00 0.00 0.00 0.00 0.00 0.00 0.01 0.01 0.01 0.01 0.01 0.01 0.01 0.01 0.01 0.01 0.01 0.01 0.01 0.01 0.02 0.02 0.02 0.02 0.01 0.01 0.01 0.01 0.01 0.00 0.00 0.00 0.00 0.00 0.00 0.00 0.00 0.00 0.00
0.02 0.02 0.00 0.00 0.00 0.00 0.00 0.00 0.00 0.00 0.00 0.00 0.00 0.00 0.00 0.01 0.01 0.02 0.02 0.01 0.02 0.02 0.02 0.02 0.01 0.01 0.01 0.01 0.01 0.01 0.01 0.01 0.01 0.01 0.01 0.01 0.01 0.01 0.00 0.00 0.01 0.01 0.01 0.01 0.01 0.01 0.00 0.00 0.00
0.03 0.02 0.00 0.00 0.00 0.00 0.00 0.00 0.00 0.00 0.00 0.00 0.00 0.00 0.01 0.01 0.02 0.02 0.02 0.02 0.02 0.02 0.02 0.02 0.02 0.01 0.01 0.01 0.01 0.01 0.01 0.01 0.01 0.00 0.00 0.01 0.01 0.01 0.01 0.01 0.01 0.01 0.01 0.01 0.01 0.01 0.01 0.01 0.00
0.02 0.02 0.00 0.00 0.00 0.00 0.00 0.00 0.00 0.00 0.00 0.00 0.00 0.00 0.00 0.01 0.02 0.02 0.02 0.02 0.02 0.02 0.02 0.02 0.03 0.01 0.01 0.01 0.01 0.01 0.01 0.01 0.01 0.01 0.01 0.01 0.01 0.02 0.02 0.01 0.01 0.01 0.00 0.00 0.01 0.01 0.01 0.01 0.01
0.02 0.01 0.00 0.00 0.00 0.00 0.00 0.00 0.00 0.00 0.00 0.00 0.00 0.00 0.01 0.01 0.01 0.01 0.02 0.03 0.02 0.02 0.02 0.02 0.03 0.03 0.01 0.00 0.01 0.01 0.01 0.01 0.02 0.03 0.03 0.03 0.02 0.02 0.02 0.02 0.02 0.01 0.01 0.00 0.00 0.00 0.00 0.01 0.01
0.01 0.01 0.01 0.00 0.00 0.00 0.00 0.00 0.00 0.00 0.00 0.00 0.00 0.00 0.01 0.01 0.01 0.02 0.02 0.02 0.03 0.03 0.02 0.03 0.03 0.04 0.04 0.01 0.01 0.01 0.00 0.01 0.01 0.02 0.03 0.05 0.05 0.04 0.03 0.02 0.02 0.02 0.02 0.01 0.00 0.00 0.00 0.00 0.01
0.01 0.01 0.01 0.01 0.00 0.00 0.00 0.00 0.00 0.00 0.00 0.01 0.01 0.01 0.01 0.01 0.01 0.01 0.02 0.02 0.02 0.03 0.03 0.03 0.03 0.04 0.04 0.02 0.01 0.01 0.01 0.01 0.01 0.01 0.01 0.02 0.03 0.04 0.04 0.03 0.03 0.02 0.02 0.02 0.01 0.01 0.00 0.00 0.01
0.01 0.01 0.02 0.01 0.00 0.00 0.00 0.00 0.00 0.00 0.00 0.01 0.02 0.02 0.02 0.02 0.01 0.01 0.01 0.01 0.02 0.03 0.04 0.05 0.05 0.05 0.04 0.03 0.01 0.01 0.01 0.01 0.00 0.00 0.01 0.01 0.02 0.02 0.03 0.04 0.04 0.04 0.04 0.04 0.04 0.02 0.01 0.00 0.00
0.02 0.01 0.02 0.01 0.00 0.00 0.00 0.00 0.00 0.00 0.00 0.00 0.01 0.02 0.02 0.02 0.02 0.02 0.03 0.03 0.03 0.04 0.05 0.06 0.06 0.06 0.04 0.04 0.02 0.00 0.01 0.00 0.00 0.00 0.01 0.01 0.01 0.01 0.01 0.02 0.03 0.03 0.03 0.03 0.04 0.06 0.08 0.05 0.02
0.03 0.02 0.02 0.01 0.00 0.00 0.00 0.00 0.00 0.00 0.00 0.00 0.01 0.01 0.02 0.02 0.03 0.03 0.03 0.03 0.03 0.03 0.04 0.06 0.07 0.08 0.06 0.05 0.04 0.02 0.01 0.00 0.00 0.01 0.01 0.00 0.00 0.00 0.01 0.02 0.02 0.02 0.03 0.04 0.03 0.03 0.05 0.07 0.06
0.03 0.02 0.02 0.02 0.00 0.00 0.00 0.00 0.00 0.00 0.00 0.00 0.01 0.01 0.02 0.02 0.03 0.03 0.02 0.03 0.03 0.04 0.05 0.06 0.07 0.09 0.11 0.10 0.08 0.05 0.02 0.01 0.01 0.00 0.00 0.00 0.00 0.00 0.01 0.01 0.02 0.01 0.01 0.02 0.02 0.02 0.02 0.02 0.03
0.03 0.03 0.02 0.02 0.00 0.00 0.00 0.00 0.00 0.00 0.00 0.00 0.00 0.01 0.01 0.01 0.03 0.04 0.03 0.03 0.03 0.03 0.04 0.04 0.06 0.08 0.10 0.11 0.10 0.07 0.03 0.02 0.01 0.01 0.00 0.00 0.01 0.01 0.01 0.01 0.01 0.01 0.01 0.01 0.01 0.01 0.01 0.01 0.01
0.04 0.04 0.02 0.02 0.01 0.00 0.00 0.00 0.00 0.00 0.00 0.00 0.00 0.00 0.01 0.01 0.02 0.04 0.04 0.03 0.03 0.03 0.03 0.03 0.04 0.05 0.06 0.07 0.10 0.10 0.07 0.06 0.04 0.02 0.02 0.02 0.02 0.02 0.01 0.00 0.00 0.01 0.01 0.01 0.01 0.01 0.01 0.01 0.01
0.04 0.04 0.03 0.02 0.02 0.01 0.01 0.01 0.00 0.00 0.00 0.00 0.00 0.00 0.00 0.00 0.01 0.02 0.03 0.03 0.03 0.02 0.02 0.03 0.03 0.05 0.05 0.05 0.08 0.09 0.08 0.08 0.07 0.04 0.04 0.03 0.02 0.02 0.01 0.01 0.01 0.01 0.01 0.01 0.00 0.00 0.01 0.01 0.01
0.04 0.02 0.02 0.03 0.04 0.02 0.01 0.02 0.01 0.01 0.00 0.00 0.00 0.00 0.00 0.00 0.01 0.01 0.02 0.03 0.03 0.02 0.02 0.03 0.03 0.04 0.05 0.05 0.06 0.06 0.05 0.04 0.03 0.03 0.03 0.04 0.04 0.03 0.02 0.01 0.00 0.01 0.01 0.00 0.01 0.01 0.01 0.01 0.01
0.04 0.02 0.02 0.02 0.04 0.03 0.02 0.02 0.02 0.01 0.01 0.01 0.00 0.00 0.00 0.00 0.01 0.01 0.02 0.03 0.04 0.04 0.03 0.03 0.03 0.04 0.05 0.05 0.05 0.06 0.06 0.04 0.03 0.03 0.02 0.01 0.01 0.01 0.01 0.01 0.00 0.00 0.00 0.01 0.01 0.01 0.01 0.01 0.01
0.04 0.03 0.03 0.03 0.04 0.05 0.02 0.02 0.03 0.03 0.02 0.01 0.01 0.00 0.00 0.00 0.01 0.01 0.02 0.02 0.03 0.04 0.04 0.04 0.04 0.04 0.05 0.05 0.05 0.05 0.06 0.05 0.04 0.03 0.03 0.02 0.01 0.01 0.01 0.01 0.00 0.00 0.00 0.00 0.00 0.01 0.01 0.01 0.01
0.05 0.07 0.10 0.10 0.09 0.06 0.03 0.02 0.04 0.04 0.02 0.01 0.01 0.01 0.01 0.01 0.01 0.02 0.02 0.02 0.03 0.03 0.04 0.04 0.05 0.05 0.05 0.05 0.04 0.04 0.05 0.06 0.05 0.04 0.03 0.02 0.01 0.01 0.01 0.01 0.00 0.00 0.00 0.00 0.00 0.00 0.01 0.01 0.01
0.06 0.07 0.08 0.09 0.07 0.04 0.03 0.03 0.04 0.03 0.01 0.01 0.01 0.01 0.01 0.02 0.02 0.02 0.01 0.02 0.02 0.03 0.03 0.03 0.04 0.05 0.05 0.05 0.05 0.04 0.04 0.05 0.06 0.05 0.04 0.03 0.02 0.02 0.02 0.01 0.01 0.00 0.00 0.00 0.00 0.01 0.01 0.01 0.01
0.06 0.06 0.04 0.04 0.03 0.05 0.04 0.02 0.02 0.01 0.01 0.01 0.01 0.01 0.01 0.02 0.03 0.03 0.02 0.02 0.02 0.02 0.03 0.03 0.04 0.04 0.04 0.05 0.05 0.06 0.05 0.04 0.04 0.04 0.04 0.04 0.03 0.02 0.01 0.01 0.01 0.01 0.01 0.01 0.01 0.01 0.01 0.01 0.01
0.04 0.04 0.04 0.05 0.04 0.05 0.04 0.02 0.02 0.02 0.02 0.02 0.02 0.02 0.02 0.02 0.03 0.03 0.02 0.01 0.01 0.02 0.02 0.03 0.03 0.03 0.03 0.04 0.04 0.05 0.05 0.05 0.05 0.04 0.03 0.03 0.03 0.02 0.02 0.01 0.01 0.01 0.01 0.01 0.01 0.01 0.01 0.01 0.01
0.04 0.05 0.05 0.05 0.04 0.04 0.03 0.03 0.04 0.04 0.03 0.04 0.03 0.02 0.02 0.03 0.03 0.03 0.02 0.01 0.01 0.02 0.02 0.02 0.02 0.02 0.02 0.03 0.03 0.04 0.04 0.04 0.04 0.04 0.03 0.03 0.03 0.02 0.01 0.01 0.01 0.01 0.01 0.01 0.01 0.01 0.02 0.02 0.01
0.02 0.03 0.05 0.06 0.04 0.03 0.03 0.03 0.03 0.03 0.03 0.03 0.04 0.04 0.03 0.02 0.02 0.02 0.02 0.02 0.01 0.02 0.02 0.02 0.02 0.02 0.01 0.01 0.02 0.02 0.03 0.03 0.04 0.04 0.04 0.03 0.02 0.02 0.02 0.01 0.01 0.01 0.01 0.01 0.01 0.01 0.01 0.01 0.01
MSLP
1013.97 1014.59 1015.33 1016.04 1016.57 1016.82 1016.75 1016.39 1015.84 1015.25 1014.77 1014.51 1014.54 1014.82 1015.28 1015.80 1016.25 1016.52 1016.58 1016.44 1016.19 1015.91 1015.70 1015.63 1015.74 1015.99 1016.33 1016.68 1016.98 1017.21 1017.34 1017.43 1017.51 1017.63 1017.82 1018.09 1018.40 1018.71 1018.98 1019.17 1019.26 1019.27 1019.21 1019.14 1019.07 1019.03 1019.02 1019.03 1019.04
1014.52 1015.28 1016.07 1016.73 1017.14 1017.20 1016.92 1016.35 1015.62 1014.91 1014.35 1014.06 1014.08 1014.37 1014.84 1015.36 1015.81 1016.09 1016.18 1016.10 1015.92 1015.74 1015.64 1015.68 1015.88 1016.20 1016.59 1016.98 1017.31 1017.55 1017.72 1017.83 1017.95 1018.10 1018.31 1018.56 1018.84 1019.10 1019.31 1019.43 1019.46 1019.44 1019.37 1019.30 1019.26 1019.26 1019.28 1019.31 1019.34
1015.15 1015.98 1016.76 1017.33 1017.57 1017.44 1016.95 1016.21 1015.36 1014.58 1014.00 1013.73 1013.77 1014.09 1014.56 1015.08 1015.51 1015.79 1015.89 1015.84 1015.73 1015.64 1015.64 1015.78 1016.07 1016.46 1016.89 1017.30 1017.64 1017.90 1018.08 1018.22 1018.36 1018.53 1018.74 1018.98 1019.22 1019.42 1019.56 1019.61 1019.60 1019.54 1019.47 1019.43 1019.43 1019.46 1019.53 1019.60 1019.64
1015.79 1016.64 1017.35 1017.78 1017.84 1017.52 1016.86 1016.00 1015.08 1014.29 1013.76 1013.54 1013.65 1014.00 1014.49 1014.99 1015.40 1015.65 1015.74 1015.73 1015.67 1015.66 1015.75 1015.98 1016.34 1016.77 1017.22 1017.63 1017.97 1018.22 1018.40 1018.55 1018.71 1018.89 1019.10 1019.32 1019.53 1019.68 1019.76 1019.76 1019.71 1019.64 1019.58 1019.57 1019.61 1019.69 1019.80 1019.90 1019.97
1016.38 1017.18 1017.77 1018.04 1017.92 1017.43 1016.65 1015.73 1014.82 1014.09 1013.65 1013.54 1013.72 1014.12 1014.62 1015.10 1015.47 1015.69 1015.77 1015.76 1015.75 1015.81 1015.98 1016.27 1016.67 1017.12 1017.56 1017.95 1018.25 1018.48 1018.65 1018.80 1018.97 1019.16 1019.38 1019.60 1019.78 1019.91 1019.95 1019.93 1019.86 1019.79 1019.75 1019.76 1019.84 1019.97 1020.11 1020.24 1020.33
1016.84 1017.54 1017.98 1018.08 1017.80 1017.19 1016.36 1015.45 1014.62 1014.01 1013.70 1013.71 1013.98 1014.43 1014.93 1015.37 1015.69 1015.86 1015.92 1015.93 1015.95 1016.06 1016.29 1016.63 1017.05 1017.49 1017.90 1018.24 1018.49 1018.67 1018.82 1018.96 1019.14 1019.35 1019.59 1019.83 1020.02 1020.14 1020.18 1020.15 1020.08 1020.02 1019.99 1020.03 1020.14 1020.29 1020.46 1020.60 1020.69
1017.12 1017.68 1017.97 1017.91 1017.51 1016.84 1016.02 1015.19 1014.49 1014.05 1013.91 1014.05 1014.41 1014.88 1015.36 1015.76 1016.01 1016.13 1016.16 1016.17 1016.22 1016.37 1016.64 1017.00 1017.42 1017.84 1018.20 1018.48 1018.67 1018.80 1018.92 1019.06 1019.25 1019.49 1019.77 1020.04 1020.26 1020.40 1020.46 1020.44 1020.38 1020.32 1020.31 1020.36 1020.47 1020.63 1020.80 1020.94 1021.02
1017.20 1017.62 1017.75 1017.57 1017.11 1016.44 1015.69 1015.00 1014.48 1014.22 1014.24 1014.51 1014.93 1015.41 1015.85 1016.18 1016.36 1016.42 1016.41 1016.41 1016.48 1016.66 1016.96 1017.34 1017.75 1018.13 1018.44 1018.65 1018.79 1018.88 1018.97 1019.12 1019.33 1019.61 1019.93 1020.24 1020.50 1020.68 1020.76 1020.76 1020.72 1020.67 1020.66 1020.70 1020.80 1020.94 1021.09 1021.22 1021.30
1017.12 1017.39 1017.40 1017.15 1016.67 1016.05 1015.43 1014.90 1014.57 1014.50 1014.67 1015.03 1015.49 1015.94 1016.32 1016.56 1016.66 1016.65 1016.61 1016.60 1016.68 1016.88 1017.20 1017.58 1017.98 1018.33 1018.59 1018.76 1018.86 1018.92 1019.01 1019.16 1019.40 1019.71 1020.07 1020.43 1020.73 1020.94 1021.06 1021.08 1021.05 1021.00 1020.98 1021.00 1021.08 1021.19 1021.31 1021.41 1021.48
1016.94 1017.09 1017.01 1016.72 1016.27 1015.75 1015.27 1014.92 1014.78 1014.86 1015.14 1015.55 1016.01 1016.41 1016.70 1016.85 1016.86 1016.78 1016.70 1016.68 1016.77 1016.98 1017.30 1017.69 1018.08 1018.40 1018.64 1018.79 1018.87 1018.93 1019.02 1019.19 1019.46 1019.80 1020.19 1020.58 1020.91 1021.15 1021.28 1021.33 1021.30 1021.26 1021.23 1021.23 1021.27 1021.34 1021.43 1021.51 1021.57
1016.74 1016.80 1016.68 1016.39 1016.00 1015.59 1015.26 1015.07 1015.07 1015.26 1015.60 1016.02 1016.43 1016.75 1016.95 1017.00 1016.93 1016.80 1016.69 1016.65 1016.74 1016.95 1017.27 1017.65 1018.03 1018.35 1018.58 1018.73 1018.82 1018.90 1019.02 1019.21 1019.49 1019.85 1020.25 1020.65 1020.99 1021.25 1021.40 1021.46 1021.45 1021.41 1021.37 1021.35 1021.37 1021.41 1021.47 1021.53 1021.58
1016.62 1016.62 1016.48 1016.22 1015.91 1015.62 1015.41 1015.34 1015.43 1015.67 1016.01 1016.38 1016.71 1016.94 1017.04 1017.01 1016.87 1016.70 1016.57 1016.52 1016.60 1016.80 1017.11 1017.48 1017.85 1018.16 1018.40 1018.58 1018.70 1018.82 1018.97 1019.19 1019.48 1019.84 1020.23 1020.62 1020.95 1021.21 1021.37 1021.45 1021.46 1021.44 1021.41 1021.39 1021.40 1021.42 1021.45 1021.49 1021.54
1016.63 1016.61 1016.47 1016.27 1016.03 1015.83 1015.71 1015.70 1015.82 1016.04 1016.33 1016.62 1016.85 1016.98 1016.99 1016.90 1016.73 1016.54 1016.39 1016.33 1016.40 1016.58 1016.86 1017.20 1017.55 1017.86 1018.13 1018.33 1018.50 1018.67 1018.86 1019.10 1019.40 1019.75 1020.12 1020.47 1020.78 1021.03 1021.20 1021.31 1021.36 1021.38 1021.38 1021.38 1021.39 1021.40 1021.42 1021.45 1021.49
1016.79 1016.78 1016.68 1016.53 1016.36 1016.22 1016.13 1016.13 1016.21 1016.36 1016.55 1016.72 1016.85 1016.89 1016.84 1016.72 1016.54 1016.36 1016.21 1016.15 1016.20 1016.35 1016.58 1016.88 1017.19 1017.49 1017.77 1018.01 1018.23 1018.45 1018.68 1018.95 1019.24 1019.56 1019.89 1020.21 1020.49 1020.73 1020.91 1021.06 1021.16 1021.24 1021.30 1021.35 1021.38 1021.41 1021.42 1021.44 1021.47
1017.07 1017.09 1017.04 1016.95 1016.84 1016.74 1016.65 1016.61 1016.61 1016.64 1016.69 1016.74 1016.76 1016.74 1016.66 1016.54 1016.39 1016.24 1016.12 1016.06 1016.08 1016.17 1016.34 1016.56 1016.82 1017.10 1017.37 1017.64 1017.90 1018.16 1018.43 1018.71 1019.00 1019.29 1019.58 1019.86 1020.11 1020.34 1020.56 1020.75 1020.92 1021.08 1021.21 1021.32 1021.40 1021.45 1021.47 1021.48 1021.49
1017.40 1017.48 1017.50 1017.49 1017.42 1017.34 1017.23 1017.11 1017.00 1016.90 1016.81 1016.74 1016.67 1016.60 1016.53 1016.44 1016.35 1016.25 1016.17 1016.11 1016.09 1016.12 1016.20 1016.34 1016.52 1016.74 1016.99 1017.26 1017.54 1017.84 1018.13 1018.42 1018.70 1018.96 1019.21 1019.45 1019.69 1019.92 1020.16 1020.41 1020.66 1020.90 1021.12 1021.30 1021.44 1021.52 1021.55 1021.55 1021.54
1017.72 1017.87 1017.99 1018.04 1018.04 1017.96 1017.82 1017.62 1017.40 1017.17 1016.95 1016.78 1016.65 1016.57 1016.52 1016.50 1016.48 1016.45 1016.41 1016.36 1016.30 1016.25 1016.23 1016.26 1016.34 1016.48 1016.67 1016.92 1017.21 1017.51 1017.81 1018.09 1018.35 1018.59 1018.81 1019.02 1019.24 1019.49 1019.76 1020.06 1020.38 1020.71 1021.01 1021.26 1021.45 1021.57 1021.63 1021.63 1021.61
1017.95 1018.20 1018.41 1018.56 1018.61 1018.56 1018.40 1018.14 1017.82 1017.49 1017.18 1016.94 1016.77 1016.70 1016.70 1016.75 1016.82 1016.86 1016.86 1016.81 1016.72 1016.59 1016.46 1016.37 1016.33 1016.37 1016.49 1016.69 1016.94 1017.22 1017.50 1017.77 1018.01 1018.22 1018.40 1018.59 1018.80 1019.05 1019.35 1019.70 1020.07 1020.46 1020.83 1021.14 1021.39 1021.55 1021.64 1021.66 1021.64
1018.08 1018.42 1018.73 1018.97 1019.10 1019.09 1018.93 1018.65 1018.28 1017.89 1017.52 1017.24 1017.08 1017.03 1017.10 1017.22 1017.37 1017.48 1017.52 1017.47 1017.34 1017.14 1016.91 1016.69 1016.53 1016.46 1016.48 1016.60 1016.78 1017.01 1017.25 1017.48 1017.68 1017.85 1018.01 1018.18 1018.37 1018.62 1018.93 1019.30 1019.70 1020.13 1020.54 1020.90 1021.19 1021.40 1021.52 1021.58 1021.59
1018.10 1018.51 1018.91 1019.24 1019.46 1019.51 1019.39 1019.13 1018.76 1018.35 1017.98 1017.70 1017.56 1017.56 1017.68 1017.88 1018.10 1018.26 1018.34 1018.29 1018.13 1017.86 1017.55 1017.23 1016.95 1016.76 1016.67 1016.68 1016.77 1016.92 1017.09 1017.25 1017.39 1017.52 1017.64 1017.78 1017.95 1018.18 1018.48 1018.84 1019.26 1019.69 1020.11 1020.49 1020.82 1021.06 1021.24 1021.35 1021.42
1018.07 1018.51 1018.97 1019.37 1019.66 1019.79 1019.74 1019.54 1019.22 1018.86 1018.53 1018.30 1018.20 1018.26 1018.43 1018.68 1018.95 1019.16 1019.25 1019.21 1019.03 1018.73 1018.35 1017.94 1017.58 1017.28 1017.07 1016.96 1016.94 1016.97 1017.04 1017.11 1017.18 1017.24 1017.31 1017.41 1017.54 1017.74 1018.01 1018.34 1018.72 1019.13 1019.53 1019.91 1020.25 1020.54 1020.76 1020.94 1021.08
1018.03 1018.46 1018.93 1019.37 1019.71 1019.92 1019.96 1019.85 1019.63 1019.36 1019.12 1018.97 1018.94 1019.05 1019.27 1019.56 1019.85 1020.08 1020.19 1020.16 1019.97 1019.65 1019.24 1018.79 1018.35 1017.96 1017.65 1017.42 1017.27 1017.18 1017.12 1017.08 1017.06 1017.04 1017.05 1017.09 1017.17 1017.32 1017.53 1017.80 1018.12 1018.47 1018.83 1019.18 1019.52 1019.82 1020.10 1020.35 1020.57
1018.08 1018.42 1018.83 1019.27 1019.64 1019.92 1020.06 1020.07 1019.98 1019.85 1019.73 1019.68 1019.74 1019.90 1020.16 1020.46 1020.76 1020.98 1021.10 1021.07 1020.89 1020.58 1020.17 1019.70 1019.23 1018.78 1018.38 1018.04 1017.76 1017.53 1017.34 1017.18 1017.05 1016.95 1016.88 1016.85 1016.87 1016.95 1017.08 1017.27 1017.50 1017.77 1018.06 1018.36 1018.67 1018.98 1019.29 1019.59 1019.88
1018.25 1018.44 1018.76 1019.13 1019.50 1019.82 1020.06 1020.20 1020.26 1020.29 1020.33 1020.41 1020.56 1020.78 1021.06 1021.36 1021.64 1021.84 1021.94 1021.91 1021.75 1021.46 1021.07 1020.62 1020.14 1019.66 1019.19 1018.76 1018.37 1018.02 1017.70 1017.42 1017.18 1016.98 1016.82 1016.72 1016.67 1016.66 1016.71 1016.80 1016.92 1017.08 1017.28 1017.50 1017.76 1018.05 1018.36 1018.70 1019.04
1018.58 1018.59 1018.76 1019.04 1019.37 1019.71 1020.03 1020.31 1020.54 1020.74 1020.94 1021.16 1021.41 1021.69 1021.98 1022.26 1022.50 1022.67 1022.74 1022.70 1022.54 1022.28 1021.93 1021.51 1021.05 1020.56 1020.06 1019.56 1019.08 1018.61 1018.18 1017.79 1017.45 1017.16 1016.92 1016.74 1016.60 1016.51 1016.45 1016.43 1016.43 1016.47 1016.54 1016.67 1016.85 1017.10 1017.39 1017.73 1018.08
1019.10 1018.91 1018.91 1019.07 1019.34 1019.69 1020.08 1020.48 1020.88 1021.26 1021.63 1021.99 1022.34 1022.67 1022.96 1023.21 1023.40 1023.50 1023.52 1023.45 1023.30 1023.05 1022.74 1022.36 1021.93 1021.45 1020.93 1020.39 1019.84 1019.30 1018.77 1018.29 1017.86 1017.48 1017.17 1016.91 1016.69 1016.50 1016.33 1016.18 1016.05 1015.96 1015.90 1015.92 1016.01 1016.18 1016.42 1016.73 1017.08
1019.81 1019.44 1019.28 1019.31 1019.52 1019.87 1020.32 1020.84 1021.38 1021.94 1022.47 1022.97 1023.41 1023.78 1024.06 1024.27 1024.38 1024.41 1024.36 1024.23 1024.05 1023.81 1023.51 1023.17 1022.76 1022.30 1021.78 1021.22 1020.63 1020.03 1019.45 1018.89 1018.39 1017.95 1017.56 1017.22 1016.92 1016.63 1016.35 1016.07 1015.80 1015.57 1015.38 1015.27 1015.25 1015.34 1015.52 1015.78 1016.09
1020.70 1020.19 1019.91 1019.85 1020.00 1020.35 1020.85 1021.46 1022.14 1022.84 1023.51 1024.13 1024.64 1025.04 1025.32 1025.46 1025.50 1025.43 1025.28 1025.09 1024.85 1024.58 1024.29 1023.95 1023.56 1023.11 1022.60 1022.04 1021.43 1020.80 1020.17 1019.57 1019.02 1018.52 1018.07 1017.66 1017.27 1016.88 1016.48 1016.08 1015.67 1015.30 1014.98 1014.75 1014.63 1014.62 1014.73 1014.93 1015.20
1021.78 1021.21 1020.85 1020.73 1020.85 1021.19 1021.73 1022.41 1023.19 1024.00 1024.78 1025.49 1026.06 1026.47 1026.72 1026.81 1026.75 1026.58 1026.33 1026.04 1025.73 1025.41 1025.08 1024.73 1024.33 1023.89 1023.38 1022.82 1022.20 1021.56 1020.91 1020.29 1019.70 1019.16 1018.65 1018.17 1017.70 1017.21 1016.70 1016.18 1015.65 1015.16 1014.72 1014.38 1014.17 1014.08 1014.13 1014.28 1014.50
1023.03 1022.46 1022.09 1021.95 1022.05 1022.39 1022.94 1023.66 1024.50 1025.38 1026.23 1026.98 1027.58 1027.99 1028.20 1028.22 1028.08 1027.80 1027.45 1027.06 1026.67 1026.28 1025.90 1025.51 1025.10 1024.64 1024.13 1023.56 1022.95 1022.30 1021.65 1021.01 1020.40 1019.82 1019.27 1018.72 1018.17 1017.60 1016.99 1016.36 1015.73 1015.13 1014.60 1014.18 1013.89 1013.75 1013.75 1013.87 1014.07
Thickness
5710 5714 5715 5710 5695 5683 5689 5706 5723 5735 5743 5755 5759 5756 5751 5748 5746 5745 5761 5768 5767 5764 5762 5759 5758 5756 5754 5753 5751 5750 5748 5747 5746 5745 5744 5744 5743 5742 5741 5739 5738 5737 5736 5735 5734 5733 5732 5730 5729
5703 5707 5703 5694 5679 5673 5687 5708 5722 5735 5747 5754 5755 5753 5748 5748 5755 5756 5760 5764 5765 5762 5760 5758 5756 5754 5752 5751 5749 5747 5746 5745 5744 5743 5742 5741 5740 5739 5738 5736 5735 5734 5733 5732 5731 5729 5728 5727 5726
5696 5698 5687 5678 5672 5678 5696 5715 5725 5737 5746 5749 5746 5747 5745 5746 5753 5756 5761 5762 5761 5759 5757 5755 5753 5752 5750 5748 5747 5745 5744 5742 5741 5740 5739 5738 5737 5736 5735 5733 5732 5731 5730 5729 5728 5726 5725 5724 5723
5684 5680 5675 5668 5674 5690 5705 5719 5726 5731 5740 5744 5742 5735 5742 5752 5755 5757 5759 5759 5756 5754 5753 5751 5750 5749 5747 5745 5744 5742 5741 5739 5738 5737 5736 5735 5734 5733 5731 5730 5729 5728 5727 5726 5724 5723 5722 5721 5720
5672 5665 5660 5660 5674 5692 5706 5716 5721 5724 5730 5736 5735 5729 5734 5747 5755 5755 5754 5754 5752 5749 5748 5747 5746 5745 5743 5742 5741 5739 5738 5736 5735 5734 5733 5731 5730 5729 5728 5727 5725 5724 5723 5722 5721 5720 5718 5717 5716
5655 5653 5648 5655 5672 5691 5703 5713 5715 5718 5723 5728 5727 5722 5727 5740 5745 5747 5748 5748 5747 5745 5744 5742 5741 5741 5739 5738 5737 5736 5735 5733 5732 5730 5729 5728 5726 5725 5724 5723 5722 5720 5719 5718 5717 5716 5715 5713 5712
5646 5644 5646 5656 5667 5680 5698 5708 5707 5710 5714 5720 5724 5715 5721 5730 5737 5741 5742 5741 5740 5740 5739 5738 5737 5736 5735 5734 5733 5732 5731 5730 5728 5727 5725 5724 5723 5722 5720 5719 5718 5716 5715 5714 5713 5712 5711 5709 5708
5642 5639 5644 5651 5661 5674 5693 5701 5705 5706 5709 5718 5720 5711 5712 5723 5731 5734 5733 5733 5733 5733 5733 5732 5732 5731 5730 5729 5728 5728 5727 5726 5724 5723 5721 5720 5719 5717 5716 5715 5714 5712 5711 5710 5709 5707 5706 5705 5704
5636 5627 5635 5648 5657 5670 5686 5690 5698 5706 5706 5708 5712 5716 5721 5723 5725 5725 5723 5723 5724 5725 5726 5727 5727 5726 5726 5725 5724 5723 5722 5721 5719 5718 5717 5715 5714 5713 5712 5711 5709 5708 5707 5705 5704 5703 5702 5700 5699
5620 5619 5636 5652 5659 5666 5675 5680 5687 5691 5691 5695 5701 5709 5716 5716 5717 5716 5717 5717 5718 5718 5719 5721 5721 5721 5721 5720 5719 5718 5717 5716 5715 5713 5712 5711 5710 5708 5707 5706 5705 5703 5702 5701 5700 5698 5697 5696 5694
5615 5620 5633 5645 5654 5660 5665 5671 5679 5679 5680 5689 5694 5699 5705 5707 5708 5710 5711 5713 5715 5715 5715 5716 5716 5716 5716 5715 5714 5713 5712 5711 5710 5709 5708 5706 5705 5704 5702 5701 5700 5699 5697 5696 5694 5693 5692 5691 5689
5606 5617 5627 5635 5643 5649 5653 5661 5666 5673 5682 5692 5696 5698 5699 5699 5702 5704 5706 5707 5709 5710 5711 5711 5711 5711 5711 5710 5709 5708 5707 5706 5705 5704 5703 5702 5700 5699 5698 5696 5695 5694 5692 5691 5690 5688 5687 5685 5683
5596 5607 5618 5626 5632 5639 5645 5649 5655 5664 5676 5683 5686 5689 5691 5693 5696 5699 5702 5703 5704 5705 5706 5707 5707 5707 5706 5705 5705 5704 5703 5702 5701 5700 5698 5698 5696 5694 5693 5692 5690 5689 5688 5686 5685 5683 5681 5680 5678
5589 5596 5605 5614 5620 5628 5632 5640 5646 5656 5666 5670 5675 5679 5683 5686 5690 5692 5695 5697 5698 5701 5702 5703 5702 5702 5702 5701 5700 5699 5699 5697 5696 5695 5694 5693 5692 5690 5689 5687 5685 5684 5683 5681 5680 5678 5676 5674 5672
5580 5581 5589 5601 5610 5617 5622 5624 5636 5649 5654 5658 5663 5669 5673 5678 5683 5687 5691 5693 5695 5696 5698 5698 5698 5697 5697 5696 5695 5694 5694 5693 5692 5691 5689 5689 5688 5686 5684 5682 5680 5679 5678 5676 5674 5672 5670 5668 5666
5564 5563 5568 5588 5600 5607 5604 5606 5629 5638 5642 5646 5652 5658 5663 5670 5676 5681 5685 5688 5690 5691 5692 5693 5693 5692 5691 5691 5690 5689 5688 5688 5687 5686 5685 5684 5683 5682 5680 5677 5675 5674 5672 5671 5669 5666 5663 5661 5659
5545 5547 5558 5575 5590 5596 5594 5600 5620 5628 5632 5636 5642 5648 5654 5659 5666 5673 5679 5682 5684 5685 5686 5686 5687 5686 5685 5685 5684 5683 5682 5682 5681 5680 5679 5679 5678 5676 5675 5673 5670 5669 5667 5665 5663 5660 5657 5654 5652
5538 5543 5553 5563 5580 5585 5586 5594 5610 5618 5623 5627 5632 5639 5646 5652 5661 5667 5672 5675 5677 5678 5680 5680 5680 5679 5679 5678 5676 5675 5675 5675 5674 5674 5673 5673 5672 5670 5669 5667 5665 5663 5660 5658 5656 5653 5650 5647 5645
5540 5542 5547 5559 5575 5576 5579 5587 5600 5609 5613 5618 5623 5630 5638 5646 5654 5659 5663 5666 5668 5669 5671 5672 5673 5673 5673 5671 5669 5667 5666 5667 5667 5667 5667 5666 5665 5664 5663 5660 5658 5656 5654 5651 5649 5646 5643 5640 5638
5535 5537 5542 5555 5567 5569 5570 5578 5592 5601 5607 5613 5618 5624 5631 5637 5643 5648 5653 5657 5660 5662 5664 5665 5667 5668 5668 5667 5666 5664 5662 5661 5661 5660 5660 5659 5659 5658 5656 5654 5651 5649 5647 5644 5642 5640 5636 5633 5631
5530 5532 5538 5545 5555 5561 5561 5567 5581 5593 5601 5608 5614 5620 5626 5631 5636 5640 5644 5649 5652 5655 5657 5660 5661 5662 5661 5660 5658 5655 5653 5652 5651 5651 5651 5652 5652 5651 5649 5647 5645 5642 5640 5637 5635 5633 5630 5626 5623
5523 5535 5538 5541 5538 5539 5549 5544 5568 5580 5589 5598 5603 5608 5616 5623 5629 5634 5638 5642 5646 5649 5651 5653 5654 5654 5654 5654 5652 5651 5649 5647 5646 5646 5645 5644 5644 5643 5642 5640 5638 5636 5633 5631 5629 5626 5624 5620 5616
5523 5534 5534 5534 5532 5531 5539 5537 5555 5571 5577 5586 5593 5598 5605 5613 5620 5626 5632 5637 5640 5642 5643 5645 5646 5646 5647 5647 5647 5644 5642 5641 5639 5638 5637 5636 5635 5635 5634 5632 5630 5628 5626 5624 5621 5619 5616 5614 5610
5521 5522 5523 5521 5519 5519 5532 5533 5544 5556 5570 5578 5585 5590 5597 5605 5611 5617 5623 5627 5630 5632 5634 5636 5637 5638 5639 5639 5639 5637 5635 5633 5631 5629 5628 5627 5626 5626 5625 5624 5622 5621 5619 5617 5614 5612 5609 5606 5603
5508 5503 5498 5499 5501 5513 5530 5530 5538 5553 5563 5570 5576 5582 5588 5595 5602 5608 5612 5615 5619 5621 5624 5627 5629 5629 5630 5631 5631 5630 5628 5627 5626 5624 5622 5620 5618 5617 5617 5616 5614 5612 5611 5609 5606 5604 5601 5599 5595
5498 5499 5494 5492 5497 5508 5520 5522 5533 5545 5553 5561 5567 5574 5580 5585 5592 5598 5602 5606 5608 5612 5614 5617 5619 5621 5621 5622 5621 5621 5620 5619 5618 5617 5615 5613 5612 5611 5609 5607 5606 5604 5602 5600 5598 5595 5593 5590 5587
5493 5492 5498 5491 5490 5494 5504 5515 5529 5539 5544 5550 5555 5561 5567 5574 5580 5586 5591 5595 5598 5601 5605 5608 5609 5610 5611 5612 5612 5611 5611 5610 5609 5608 5607 5605 5604 5602 5600 5599 5597 5595 5593 5591 5589 5586 5584 5581 5579
5491 5490 5486 5484 5484 5489 5498 5505 5511 5521 5529 5536 5541 5547 5555 5562 5567 5573 5578 5583 5587 5591 5593 5596 5598 5600 5600 5601 5602 5602 5601 5600 5599 5598 5596 5596 5594 5593 5591 5590 5588 5586 5584 5582 5580 5577 5575 5572 5569
5479 5482 5480 5480 5484 5486 5489 5498 5507 5510 5517 5522 5527 5533 5540 5547 5552 5557 5562 5568 5573 5577 5580 5582 5584 5586 5587 5589 5590 5590 5589 5590 5589 5588 5587 5586 5584 5583 5582 5581 5579 5577 5575 5573 5571 5568 5566 5563 5560
5475 5473 5473 5474 5474 5476 5479 5487 5501 5503 5507 5512 5516 5522 5527 5532 5537 5542 5547 5553 5557 5561 5564 5567 5570 5573 5575 5577 5578 5578 5578 5578 5577 5577 5576 5576 5574 5573 5572 5571 5569 5568 5566 5564 5562 5559 5556 5553 5550